Weather in Ilmino

Russia / Penza Oblast     53°47′14″N   45°39′26″E
temp.,
°C
wind,
m/s
gust,
m/s
humid.,
%
clouds,
%
prec.,
mm/h
press.,
hPa
HPBL,
m
28 february, sun
sun2800:00−16nnw41094100 0.0 1010449
03:00−18nw389794 0.0 1011172
06:00−20nw349868 0.0 101264
09:00−17nw379462 0.0 1013270
12:00−14nw469072 0.0 1013489
15:00−13nw578984 0.0 1014507
18:00−17nnw339598 0.0 101645
21:00−19nnw229698 0.0 101922
1 march, mon
mon100:00−20nw229818 0.0 102020
03:00−20nw2210012 0.0 102220
06:00−20wnw221003 0.0 102320
09:00−16wnw229419 0.0 1024141
12:00−11wnw348987 0.0 1024352
15:00−10w459286 0.0 1023324
18:00−13wsw349876 0.0 102264
21:00−13sw489888 0.1 1021163
2 march, tue
tue200:00−8sw51194100 0.1 1017430
03:00−6sw71495100 0.4 1013518
06:00−4wsw71496100 1.5 1009617
09:00−2wsw71497100 3.5 1005705
12:000w611100100 2.5 1002702
15:000nw61098100 3.7 1002664
18:00−3wnw3798100 0.5 1002183
21:00−5wnw4109394 0.9 1004267
3 march, wed
wed300:00−4wnw41097100 0.2 1004379
03:00−4nw51196100 0.6 1004451
06:00−5wnw5119597 0.2 1005420
09:00−4nw6109498 0.4 1006572
12:00−3nw71092100 0.3 1008764
15:00−4nw71092100 0.6 1009790
18:00−5nw61295100 0.6 1011748
21:00−7nnw41394100 0.9 1014534
4 march, thu
thu400:00−9wnw3896100 0.1 1015214
03:00−11w3697100 0.2 1016137
06:00−14wsw349882 0.0 101668
09:00−8wsw599691 0.1 1015309
12:00−3wsw7139199 0.0 1013681
15:00−2wsw9158998 0.1 1011816
18:00−3wsw8168998 0.0 1009708
21:00−4sw8178996 0.0 1008645